Tracking 19638 objects as of 21-Apr-2019
HD Live streaming from Space Station
objects crossing your sky now

SPACEBEE-7

Track SPACEBEE-7 now!
10-day predictions


NORAD ID: 43816
Int'l Code: 2018-099BL
Perigee: 578.3 km
Apogee: 598.5 km
Inclination: 97.7 °
Period: 96.3 minutes
Semi major axis: 6959 km
RCS: Unknown
Launch date: December 3, 2018
Source: United States (US)
Launch site: AIR FORCE WESTERN TEST RANGE (AFWTR)
aabbcc
Your satellite tracking list
Your tracking list is empty




NASA's NSSDC Master Catalog

Two Line Element Set (TLE):
1 43816U 18099BL  19110.87031131 +.00000629 +00000-0 +62144-4 0  9993
2 43816 097.7488 183.6046 0014502 148.5709 211.6381 14.95350819020189
Source of the keplerian elements: AFSPC